Regional Weather Roundup
Issued by NWS

Home | Current Version | Previous Version | Graphics & Text | Print | Product List | Glossary On
Versions: 1 2 3 4 5 6 7 8 9 10 11 12 13 14 15 16 17 18 19 20 21 22 23 24 25 26 27 28 29 30 31 32 33 34 35 36 37 38 39 40 41 42 43 44 45 46 47 48 49 50
844
ASUS43 KLOT 231212
RWRIL

ILLINOIS REGIONAL WEATHER ROUNDUP
NATIONAL WEATHER SERVICE CHICAGO/ROMEOVILLE IL
600 AM CST THU FEB 23 2017

NOTE: "FAIR" INDICATES FEW OR NO CLOUDS BELOW 12,000 FEET WITH NO
SIGNIFICANT WEATHER AND/OR OBSTRUCTIONS TO VISIBILITY.

* THESE STATIONS ARE NOT UNDER NWS QUALITY CONTROL. THEY ALSO MAY NOT
  REPORT WEATHER SUCH AS PRECIPITATION OR FOG.

ILZ001-002-007-009-015-016-024-231300-
NORTHWEST ILLINOIS

CITY           SKY/WX    TMP DP  RH WIND       PRES   REMARKS
MOLINE         CLOUDY    45  41  86 N14G21    29.75R
STERLING*      PTCLDY    42  40  92 N6        29.75S
SAVANNA*       CLEAR     43  39  88 N6        29.75R
$$

ILZ003-004-008-010-011-017-018-231300-
NORTH CENTRAL ILLINOIS

CITY           SKY/WX    TMP DP  RH WIND       PRES   REMARKS
ROCKFORD       CLEAR     42  38  85 NW6       29.75S
6HR MIN TEMP:  42; 6HR MAX TEMP:  54;

FREEPORT*      CLEAR     38  37  95 W5        29.76R WCI  35
ROCHELLE*      CLEAR     43  41  94 CALM      29.74S
DE KALB*       CLEAR     42  40  94 NW7       29.74S
PERU*          CLEAR     43  41  91 N3        29.74S
$$

ILZ005-006-012>014-019>023-231300-
NORTHEAST ILLINOIS

CITY           SKY/WX    TMP DP  RH WIND       PRES   REMARKS
CHICAGO-OHARE  CLEAR     49  42  77 NW7       29.72R
6HR MIN TEMP:  48; 6HR MAX TEMP:  59;

CHICAGO-MIDWAY CLEAR     49  44  83 NW7       29.71S
6HR MIN TEMP:  49; 6HR MAX TEMP:  59;

AURORA         CLEAR     41  38  89 NW8       29.72S
6HR MIN TEMP:  40; 6HR MAX TEMP:  55;

LANSING*       FOG       40  40 100 CALM      29.73R VSB 1/2
JOLIET*        CLEAR     48  46  90 CALM      29.73R
WAUKEGAN       CLEAR     47  41  80 NW5       29.71R
6HR MIN TEMP:  46; 6HR MAX TEMP:  56;

DUPAGE AIRPORT CLEAR     44  40  85 NW6       29.72R
6HR MIN TEMP:  44; 6HR MAX TEMP:  55;

KANKAKEE*      FOG       39  39  98 CALM      29.74S VSB 1/2
WHEELING       CLEAR     48  42  80 NW9       29.72R
6HR MIN TEMP:  48; 6HR MAX TEMP:  58;

MORRIS*        CLEAR     42  40  93 NW3       29.72S
ROMEOVILLE*    CLEAR     44  44 100 NW3       29.72S
NORTHERLY ISL    N/A     51  43  74 W5          N/A
$$

LMZ740>746-231300-
SOUTHERN LAKE MICHIGAN

STATION/POSITION SKY/WX   TEMP    WIND        PRES    VSBY  WAVE
                          AIR SEA DIR/SP/G                  HT/PER
                          (F)     (DEG/KT/KT) (MB)    (MI)  (FT/S)
HARRISON CRIB              53     310/ 12/ 14   N/A
BURNHAM HARBOR             51     280/  7/ 11   N/A
CALUMET HARBOR             51     270/  3/  5 1005.9R
BURNS HARBOR               47     250/  5/  8 1007.1R
MICHIGAN CITY              46     230/ 11/ 11   N/A
$$

ILZ025>027-034>036-040-047-049-050-058-095>099-231300-
WEST-CENTRAL ILLINOIS

CITY           SKY/WX    TMP DP  RH WIND       PRES   REMARKS
QUINCY         CLOUDY    44  41  89 NE9       29.71F
GALESBURG*     CLOUDY    40  40 100 N12       29.75R
MACOMB*        CLEAR     40  39  97 N6        29.77R
JACKSONVILLE*  FOG       39  39 100 CALM      29.73S VSB 1/2
PITTSFIELD*    CLOUDY    49  46  92 NE7       29.73S
$$

ILZ028>032-037-038-041>044-048-051>054-059>061-231300-
CENTRAL ILLINOIS

CITY           SKY/WX    TMP DP  RH WIND       PRES   REMARKS
PONTIAC        PTCLDY    45  44  99 CALM      29.74S
BLOOMINGTON    FOG       42  42 100 SW3       29.75S VSB 1/4
DECATUR        FOG       43  42  97 CALM      29.73F VSB 1/4
PEORIA         CLEAR     47  44  90 N3        29.74R
6HR MIN TEMP:  43; 6HR MAX TEMP:  50;

LACON*         CLEAR     42  42  98 CALM      29.74R
LINCOLN*       FOG       43  43 100 CALM      29.74S VSB<1/4
SPRINGFIELD    FOG       46  45  96 CALM      29.75R VSB<1/4
6HR MIN TEMP:  42; 6HR MAX TEMP:  57;

TAYLORVILLE    FOG       49  49 100 CALM      29.74R VSB 1/4
6HR MIN TEMP:  48; 6HR MAX TEMP:  56;

$$

ILZ033-039-045-046-055>057-062-063-231300-
EAST-CENTRAL ILLINOIS

CITY           SKY/WX    TMP DP  RH WIND       PRES   REMARKS
CHAMPAIGN      FOG       44  42  93 CALM      29.73F VSB 1/4
RANTOUL*       FOG       47  47  99 W3        29.74S VSB 1/4
MATTOON        PTCLDY    52  52 100 S5        29.73F FOG
PARIS*         CLEAR     51  51  99 SW7       29.76S
$$

ILZ079-100>102-231300-
SOUTHWEST ILLINOIS

CITY           SKY/WX    TMP DP  RH WIND       PRES   REMARKS
ALTON          CLOUDY    44  44 100 CALM      29.73S FOG
BELLEVILLE     FOG       46  46 100 CALM      29.72S VSB 3/4
CAHOKIA*       CLOUDY    48  46  93 CALM      29.72S FOG
SPARTA*        CLEAR     55  53  92 S7        29.73F
$$

ILZ064>066-069>071-074>076-080>082-084>086-088>090-092>094-231300-
SOUTH-CENTRAL ILLINOIS

CITY           SKY/WX    TMP DP  RH WIND       PRES   REMARKS
CARBONDALE     CLEAR     53  53 100 S5        29.75S
6HR MIN TEMP:  52; 6HR MAX TEMP:  59;

CAIRO*         PTCLDY    54  54 100 S6        29.78S FOG
EFFINGHAM*     FOG       49  49 100 SE5       29.76F VSB 1/4
MARION         CLEAR     54  54 100 S6        29.77R
CENTRALIA*     PTCLDY    51  51 100 CALM      29.75R FOG
SALEM*         FOG       52  50  94 CALM      29.75S VSB 1
METROPOLIS*    CLEAR     53  52  99 CALM      29.79S FOG
$$

ILZ067-068-072-073-078-083-087-091-231300-
SOUTHEAST ILLINOIS

CITY           SKY/WX    TMP DP  RH WIND       PRES   REMARKS
LAWRENCEVILLE  CLEAR     51  51 100 S8        29.78R
FLORA*         FOG       50  50  98 CALM      29.77R VSB<1/4
FAIRFIELD*     FOG       52  52 100 CALM      29.76R VSB 1/4
HARRISBURG*    PTCLDY    51  51 100 CALM      29.77S FOG
ROBINSON*      FOG       48  48 100 S6        29.78S VSB 3/4
CARMI*         PTCLDY    49  49 100 SE7       29.77S FOG
$$

ABBREVIATIONS USED IN REMARKS
   TC - TEMPERATURE IN CELSIUS
  WCI - WIND CHILL INDEX
   HX - HEAT INDEX
  VSB - VISIBILITY
$$





USA.gov is the U.S. government's official web portal to all federal, state and local government web resources and services.